Tracking 30260 objects as of 14-Feb-2025
HD Live streaming from Space Station
objects crossing your sky now

NOAA 17 DEB

Track NOAA 17 DEB now!
10-day predictions


NORAD ID: 48765
Int'l Code: 2002-032DB
Perigee: 678.0 km
Apogee: 702.3 km
Inclination: 98.7 °
Period: 98.4 minutes
Semi major axis: 7061 km
RCS: Unknown
Launch date: June 24, 2002
Source: United States (US)
Launch site: AIR FORCE WESTERN TEST RANGE (AFWTR)

Note: This is SATELLITE DEBRIS
Your satellite tracking list
Your tracking list is empty




NASA's NSSDC Master Catalog

Two Line Element Set (TLE):
1 48765U 02032DA  25044.72355533  .00026862  00000-0  52016-2 0  9995
2 48765  98.6991  31.6385 0017207  44.3676 315.8900 14.63159639201609
Source of the keplerian elements: AFSPC